Regional Weather Roundup
Issued by NWS

Home | Current Version | Previous Version | Graphics & Text | Print | Product List | Glossary On
Versions: 1 2 3 4 5 6 7 8 9 10 11 12 13 14 15 16 17 18 19 20 21 22 23 24 25 26 27 28 29 30 31 32 33 34 35 36 37 38 39 40 41 42 43 44 45 46 47 48 49 50
000
ASUS43 KIND 242009
RWRIN

WEATHER ROUNDUP FOR INDIANA
NATIONAL WEATHER SERVICE INDIANAPOLIS IN
300 PM EST SAT JAN 24 2015

NOTE: "FAIR" INDICATES FEW OR NO CLOUDS BELOW 12,000 FEET WITH NO
SIGNIFICANT WEATHER AND/OR OBSTRUCTIONS TO VISIBILITY.

* - STATION DOES NOT REPORT WEATHER SUCH AS PRECIPITATION OR FOG.

+ - STATION NOT QUALITY CONTROLLED BY THE NATIONAL WEATHER SERVICE.
    USE DATA WITH CAUTION...ESPECIALLY DEWPOINT AND RELATIVE
    HUMIDITY OBSERVATIONS.

INZ001>003-010>013-019-020-242100-
NORTHWEST INDIANA

CITY           SKY/WX    TMP DP  RH WIND       PRES   REMARKS
GARY /AIRPORT/ PTSUNNY   45  28  53 W15G26    29.65F
KNOX *+        MOSUNNY   41  21  44 W13       29.64F
LA PORTE +     PTSUNNY   45  32  59 NW6       29.64F
MICHIGAN CITY+ CLOUDY    41  27  56 W6        29.64F
MONTICELLO +   SUNNY     41  34  75 W9G16     29.66F
RENSSELAER +   MOSUNNY   41  37  87 W16       29.66F
VALPARAISO     SUNNY     42  32  67 W13       29.64F

$$

LMZ046-743>745-242100-
SOUTHERN LAKE MICHIGAN

STATION/POSITION TIME  TEMP WIND        PRES
                       AIR  DIR/SP/G
                 (UTC) (F)  (DEG/KT/KT) (MB)
MICHIGAN CITY    2000   35  210/  7/  8   N/A

$$

INZ004-005-014>016-021>024-242100-
NORTH CENTRAL INDIANA

CITY           SKY/WX    TMP DP  RH WIND       PRES   REMARKS
GOSHEN         PTSUNNY   40  32  73 W10       29.62F
LOGANSPORT +   CLOUDY    39  32  75 W14       29.66F
PERU/GRISSOM   PTSUNNY   40  33  77 W16       29.65F
ROCHESTER +    MOSUNNY   41  34  75 SW8       29.65F
SOUTH BEND     CLOUDY    40  30  67 NW12      29.64F
WARSAW +       CLOUDY    37  32  81 W10       29.64S

$$

INZ006>009-017-018-025>027-242100-
NORTHEAST INDIANA

CITY           SKY/WX    TMP DP  RH WIND       PRES   REMARKS
ANGOLA *+      PTSUNNY   36  25  64 NW10      29.60S
AUBURN +       CLOUDY    36  30  80 W8        29.63S
FORT WAYNE     PTSUNNY   36  30  79 W14       29.64S
HUNTINGTON +   PTSUNNY   37  28  67 W8G17     29.64S

$$

INZ028-029-035-036-043>045-051>053-242100-
WEST CENTRAL INDIANA

CITY           SKY/WX    TMP DP  RH WIND       PRES   REMARKS
GREENCASTLE +  SUNNY     39  28  65 W6        29.72F
LAFAYETTE      MOSUNNY   42  32  67 W12       29.67F
TERRE HAUTE    SUNNY     44  32  62 W12       29.74F

$$

INZ030>032-037>040-046>048-054>057-064-065-242100-
CENTRAL INDIANA

CITY           SKY/WX    TMP DP  RH WIND       PRES   REMARKS
ANDERSON       PTSUNNY   37  28  70 W12       29.69F
CP ATTERBURY + CLOUDY    39  30  70 W9        29.73F
COLUMBUS       CLOUDY    37  27  65 W14       29.74F
INDIANAPOLIS   PTSUNNY   38  29  70 W10       29.70F
-EAGLE CREEK   MOSUNNY   39  29  67 W13G18    29.70F
KOKOMO *+      PTSUNNY   37  32  81 W13       29.67F
MARION +       MOSUNNY   36  31  81 W13       29.67F
MT COMFORT *+  MOSUNNY   39  25  56 W12       29.70F
SHELBYVILLE    CLOUDY    38  29  70 W10       29.71F
ZIONSVILLE +   MOSUNNY   39  31  70 W12       29.69F

$$

INZ033-034-041-042-049-050-058-059-242100-
EAST CENTRAL INDIANA

CITY           SKY/WX    TMP DP  RH WIND       PRES   REMARKS
MUNCIE         MOSUNNY   35  30  82 W15       29.66F WCI  25

$$

INZ060-061-067>069-081>083-085>088-242100-
SOUTHWEST INDIANA

CITY           SKY/WX    TMP DP  RH WIND       PRES   REMARKS
EVANSVILLE     SUNNY     48  31  51 W7        29.82F
HUNTINGBURG *+ SUNNY     45  32  61 W13       29.80F
WASHINGTON +   SUNNY     43  29  58 W9        29.78F

$$

INZ062-063-066-070>080-084-089>092-242100-
SOUTH CENTRAL AND SOUTHEAST INDIANA

CITY           SKY/WX    TMP DP  RH WIND       PRES   REMARKS
BLOOMINGTON    PTSUNNY   39  30  70 W12       29.74F
SEYMOUR +      CLOUDY    41  28  60 W14       29.76

$$




USA.gov is the U.S. government's official web portal to all federal, state and local government web resources and services.